Dewpoint
69 70 70 70 70 70 70 68 68 70 70 70 70 70 70 70 72 71 70 70 68 67 68 69 69 69 70 70 69 69 67 66 62 66 68 68 66 68 70 70 69 67 67
70 70 70 69 70 70 69 70 69 70 70 69 71 70 70 70 70 69 68 70 69 69 68 69 68 69 69 69 69 68 68 67 66 64 67 68 67 69 70 67 70 67 66
68 69 68 69 70 70 70 69 71 70 71 71 71 70 70 70 70 70 70 70 70 70 70 69 69 68 68 70 69 68 68 69 68 66 66 68 68 70 69 68 64 63 61
68 68 68 67 67 68 69 69 70 71 70 70 71 70 70 71 69 68 69 69 70 70 70 70 69 68 69 69 68 68 67 67 67 66 65 66 68 69 69 68 63 63 55
69 68 66 66 65 65 67 68 70 71 70 70 70 70 69 67 67 66 68 69 70 69 70 70 70 70 69 68 68 67 66 67 66 65 65 65 66 67 68 68 65 62 60
68 68 68 67 65 65 68 69 69 69 70 69 70 67 64 63 61 64 66 68 70 70 70 70 71 70 69 68 67 66 67 66 66 65 65 65 64 66 67 68 66 61 62
68 68 67 67 65 66 68 68 69 69 68 68 67 65 62 62 62 61 65 67 70 68 66 67 70 69 68 68 66 65 63 64 66 68 65 63 62 61 63 66 66 64 65
67 67 67 65 65 66 68 68 68 67 66 66 64 62 61 59 58 59 63 67 68 63 61 63 64 65 64 67 62 59 59 60 59 59 58 57 56 57 59 64 66 63 62
67 67 67 66 67 67 67 67 68 66 64 63 63 62 59 58 56 57 60 66 64 60 60 59 61 63 61 64 61 59 57 58 59 58 57 55 55 55 55 61 60 63 60
66 66 67 67 67 66 66 65 64 64 61 61 59 59 58 57 55 56 59 64 64 59 57 56 57 57 56 60 62 61 58 57 58 55 52 51 51 51 53 45 51 63 60
65 65 66 65 65 64 64 64 63 62 60 59 57 56 56 55 55 54 56 64 61 57 56 55 54 54 53 54 58 63 60 59 57 55 54 54 53 50 50 49 46 51 52
64 64 64 64 64 64 63 63 61 60 60 59 57 55 55 53 53 53 53 56 57 56 54 54 53 51 51 53 55 54 54 54 51 52 51 51 53 55 53 51 50 48 49
62 62 62 62 62 62 61 61 61 60 60 59 58 56 54 53 53 52 52 53 54 53 53 53 52 50 51 53 54 54 54 54 53 51 50 50 51 48 50 54 53 53 52
61 61 61 57 49 48 45 44 45 48 59 58 58 57 55 54 54 54 54 53 53 54 53 52 50 49 48 48 48 50 51 52 51 50 49 48 47 40 43 44 47 49 40
60 59 56 48 43 41 42 42 41 42 44 44 47 53 54 53 52 50 52 53 52 50 52 52 48 45 43 43 43 42 42 42 41 42 41 40 39 38 41 42 42 39 38
58 58 56 50 44 39 39 41 44 43 43 43 46 49 49 48 46 45 46 46 48 48 53 51 49 47 45 45 46 46 45 44 43 41 39 38 38 39 40 41 41 40 39
57 57 57 55 50 44 43 41 41 43 45 43 42 44 46 45 45 45 44 46 47 50 52 51 50 49 49 48 46 46 44 44 40 39 39 39 39 40 40 37 37 41 41
56 55 57 56 55 53 50 45 39 40 41 47 47 45 44 44 44 44 44 49 53 53 53 52 51 50 49 46 42 39 40 38 38 39 40 41 41 42 37 37 38 41 42
51 52 52 56 56 55 55 49 42 44 42 47 49 48 45 43 43 43 44 48 49 49 46 44 44 43 41 40 39 39 39 40 41 43 43 37 41 40 38 37 38 40 39
49 51 46 41 45 46 50 53 46 46 43 45 47 48 49 48 49 46 46 49 49 48 45 44 43 44 44 44 42 41 42 41 40 40 39 36 36 35 35 35 35 36 36
47 46 50 43 40 41 43 46 48 46 43 43 43 46 47 45 44 44 47 44 48 45 45 44 44 44 44 44 40 40 41 42 41 39 38 37 35 35 36 36 36 35 33
50 46 45 45 46 48 46 45 45 46 46 43 44 45 43 45 44 46 47 47 46 46 47 46 45 44 44 43 42 42 42 39 39 39 36 35 34 34 33 33 34 34 33
46 46 46 45 47 48 47 45 45 45 46 47 46 45 44 45 43 44 47 48 45 46 46 45 44 43 45 43 42 44 40 39 38 38 36 35 35 35 35 35 35 35 34
45 44 46 48 48 48 48 48 47 45 45 46 46 45 44 43 41 40 42 46 46 45 45 45 46 43 42 43 42 41 40 39 40 38 37 37 36 32 36 36 36 35 36
46 48 48 48 49 49 49 49 48 48 46 46 45 43 42 41 42 46 45 46 46 45 44 44 44 43 41 42 41 40 40 35 39 38 39 38 35 35 39 38 39 39 40
49 50 48 48 49 48 48 49 49 47 46 46 46 47 46 46 45 47 47 47 47 46 45 46 46 44 43 44 42 39 34 33 37 35 39 40 39 39 41 41 40 40 40
Lifted_Index
-3 -4 -4 -4 -3 -3 -3 -3 -3 -3 -3 -3 -3 -3 -4 -4 -4 -4 -4 -3 -3 -3 -3 -3 -3 -3 -3 -3 -3 -2 -2 -2 -1 -1 -1 -1 -1 -1 -1 -0 -0 -0 -1
-3 -3 -4 -3 -3 -3 -3 -3 -3 -3 -3 -3 -3 -3 -3 -4 -4 -3 -3 -3 -3 -3 -3 -3 -3 -3 -3 -3 -3 -2 -2 -2 -2 -2 -1 -1 -1 -1 -1 -0 -0 -1 -1
-3 -3 -3 -3 -3 -3 -3 -3 -3 -3 -3 -3 -3 -3 -3 -3 -4 -3 -3 -3 -3 -3 -3 -3 -3 -3 -3 -3 -2 -2 -2 -2 -2 -2 -2 -1 -1 -1 -1 -1 -1 -1 -1
-2 -3 -3 -3 -3 -3 -3 -3 -3 -4 -4 -3 -3 -3 -3 -4 -3 -3 -3 -3 -3 -3 -4 -4 -3 -3 -3 -3 -2 -2 -2 -2 -2 -2 -2 -2 -2 -2 -1 -1 -1 -1 -1
-1 -2 -2 -3 -3 -3 -3 -3 -3 -3 -3 -3 -3 -3 -3 -3 -3 -3 -3 -3 -3 -3 -3 -3 -3 -3 -3 -3 -2 -2 -2 -2 -1 -1 -1 -2 -2 -2 -1 -1 -1 -1 -1
-0 -1 -1 -2 -2 -2 -2 -3 -3 -3 -3 -3 -3 -3 -3 -3 -2 -2 -2 -3 -3 -3 -3 -3 -3 -3 -2 -2 -2 -2 -1 -1 -1 -1 -1 -1 -1 -1 -1 -1 -1 -1 -1
-0 -0 -1 -1 -1 -1 -1 -2 -2 -2 -2 -2 -2 -2 -2 -2 -2 -2 -2 -2 -3 -3 -2 -2 -3 -2 -2 -2 -2 -1 -1 -1 -1 -1 -1 -1 -1 -1 -1 -1 -1 -1 -1
-1 -1 -1 -1 -1 -1 -1 -1 -2 -1 -1 -1 -1 -2 -2 -1 -1 -1 -1 -1 -2 -2 -2 -2 -1 -1 -1 -2 -1 -1 -1 -1 -1 -1 -0 -0 0 0 0 -0 -1 -1 -1
-1 -1 -1 -1 -1 -1 -1 -1 -1 -1 -1 -0 -1 -1 -1 -1 -0 -0 0 0 -0 -1 -0 0 1 1 0 -0 -1 -1 -0 -0 0 0 0 1 1 1 1 1 0 0 0
-1 -1 -1 -1 -1 -1 -1 -1 -1 -1 -0 0 0 -0 0 0 0 0 1 1 1 1 2 2 3 2 2 1 0 0 0 -0 0 1 1 1 1 1 1 1 1 1 1
-1 -2 -2 -2 -2 -2 -2 -2 -1 -1 -0 0 0 1 1 1 1 0 1 1 2 2 3 3 3 3 2 2 1 1 0 0 0 1 1 1 1 1 2 2 2 2 1
-2 -3 -3 -3 -3 -3 -2 -2 -1 -1 -1 -0 0 1 1 1 1 1 2 2 2 3 4 4 4 3 3 2 2 1 1 1 1 1 1 1 1 2 3 3 4 3 3
-2 -3 -3 -3 -3 -3 -2 -1 -1 -0 0 1 1 1 2 3 3 4 3 3 3 3 3 4 3 3 3 3 2 2 2 2 2 2 2 2 3 4 6 7 7 7 7
-2 -2 -2 -2 -2 -2 -2 -1 -0 0 1 2 2 3 3 5 6 6 5 4 4 4 4 4 3 3 3 3 3 3 3 3 3 3 4 5 6 8 9 10 11 11 10
-1 -1 -1 -0 -0 -0 -0 -0 1 2 2 3 4 4 5 5 6 7 6 5 5 5 5 5 5 4 4 4 4 4 5 5 5 6 7 8 9 10 10 11 12 12 11
-0 -0 0 0 1 1 1 1 2 3 3 4 4 5 5 6 7 7 7 6 6 6 7 7 7 6 6 6 6 7 8 9 9 10 10 11 11 11 11 12 12 12 12
0 0 1 1 1 2 2 3 4 4 5 5 6 6 6 7 7 7 6 6 6 6 7 7 8 8 8 9 9 10 11 12 13 13 13 13 12 12 12 13 13 12 12
0 0 1 1 1 2 3 5 6 7 7 8 8 8 7 7 7 6 6 6 6 6 6 6 7 8 9 10 12 12 13 14 14 13 13 12 12 12 12 11 11 11 11
1 1 1 2 2 2 3 5 7 8 8 9 9 9 8 7 6 6 6 5 6 6 6 7 7 8 9 11 13 13 13 13 12 12 11 11 11 10 10 10 10 10 10
2 2 2 2 3 3 4 5 6 7 7 7 8 8 7 7 6 7 7 6 6 7 8 8 8 9 10 11 12 12 12 11 11 11 11 10 10 9 9 9 9 10 10
2 3 3 3 3 4 4 4 5 5 5 6 6 7 7 7 7 7 7 7 7 8 8 9 9 10 10 11 11 11 11 11 10 10 10 10 10 10 10 10 10 10 10
2 3 3 3 3 3 4 4 4 4 5 5 5 6 6 7 7 7 7 7 7 8 8 8 9 9 10 10 10 10 10 10 9 9 10 10 10 10 10 10 9 9 9
2 3 3 3 3 3 4 4 4 4 5 5 5 6 6 7 7 7 7 7 7 7 7 7 7 8 8 9 9 9 9 9 9 9 9 9 9 9 9 8 8 8 7
3 3 3 3 4 4 4 4 4 5 5 5 5 6 6 6 7 7 6 6 6 6 6 6 6 6 7 7 7 7 7 8 8 8 8 7 7 7 7 7 6 6 6
3 3 3 3 3 3 3 4 4 4 5 5 5 5 6 6 6 6 6 6 6 6 6 5 5 5 5 5 6 6 6 7 7 7 6 5 5 5 5 5 5 5 5
3 3 3 3 3 3 3 3 4 4 4 5 5 5 5 6 6 6 6 6 5 5 5 5 5 5 5 5 5 5 5 5 6 6 5 4 4 4 4 4 4 4 4